| time (UTC) | temp F | wind direction | speed MPH | gust MPH | rain 1hr in | rain 24hr in | rain mn in | humidity % | barometer mb |
| 20260505001136 | 78 | 221 | 2.0 | 6.0 | 0.00 | 1.33 | 1.33 | 99 | 1012.5 |
| 20260505000633 | 79 | 217 | 7.0 | 18.0 | 0.00 | 1.33 | 1.33 | 99 | 1012.5 |
| 20260505000131 | 79 | 210 | 3.0 | 11.0 | 0.00 | 1.33 | 1.33 | 99 | 1012.4 |
| 20260504235627 | 79 | 131 | 0.0 | 9.0 | 0.00 | 1.33 | 1.33 | 99 | 1012.5 |
| 20260504235124 | 79 | 135 | 3.0 | 12.0 | 0.00 | 1.33 | 1.33 | 99 | 1012.4 |
| 20260504234621 | 79 | 175 | 5.0 | 7.0 | 0.00 | 1.33 | 1.33 | 99 | 1012.4 |
| 20260504234118 | 79 | 195 | 1.0 | 6.0 | 0.00 | 1.33 | 1.33 | 99 | 1012.6 |
| 20260504233613 | 79 | 218 | 3.0 | 11.0 | 0.00 | 1.33 | 1.33 | 99 | 1012.6 |
| 20260504233110 | 79 | 202 | 3.0 | 13.0 | 0.00 | 1.33 | 1.33 | 99 | 1012.5 |
| 20260504232607 | 79 | 142 | 3.0 | 9.0 | 0.00 | 1.33 | 1.33 | 99 | 1012.6 |
| 20260504232105 | 79 | 248 | 9.0 | 9.0 | 0.00 | 1.33 | 1.33 | 99 | 1012.6 |
| 20260504231601 | 79 | 173 | 1.0 | 19.0 | 0.00 | 1.33 | 1.33 | 99 | 1012.7 |
| 20260504231057 | 80 | 216 | 2.0 | 8.0 | 0.00 | 1.33 | 1.33 | 99 | 1012.7 |
| 20260504230553 | 80 | 147 | 3.0 | 9.0 | 0.00 | 1.33 | 1.33 | 99 | 1013.0 |
| 20260504230053 | 81 | 211 | 4.0 | 12.0 | 7.98 | 1.33 | 1.33 | 99 | 1012.9 |
| 20260504225549 | 82 | 203 | 15.0 | 15.0 | 7.98 | 1.33 | 1.33 | 99 | 1012.7 |
| 20260504225046 | 81 | 147 | 4.0 | 10.0 | 0.00 | 0.00 | 0.00 | 99 | 1013.0 |
| 20260504224543 | 81 | 84 | 3.0 | 8.0 | 0.00 | 0.00 | 0.00 | 99 | 1013.1 |
| 20260504224040 | 80 | 0 | 1.0 | 13.0 | 0.00 | 0.00 | 0.00 | 99 | 1013.2 |
| 20260504223537 | 81 | 103 | 3.0 | 7.0 | 0.00 | 0.00 | 0.00 | 99 | 1013.2 |
| 20260504223033 | 82 | 211 | 15.0 | 15.0 | 0.00 | 0.00 | 0.00 | 99 | 1012.9 |
| 20260504222530 | 81 | 176 | 2.0 | 14.0 | 0.00 | 0.00 | 0.00 | 99 | 1013.0 |
| 20260504222027 | 82 | 251 | 5.0 | 11.0 | 0.00 | 0.00 | 0.00 | 99 | 1013.1 |
| 20260504221524 | 82 | 235 | 4.0 | 9.0 | 0.00 | 0.00 | 0.00 | 99 | 1013.1 |
| 20260504221021 | 82 | 125 | 7.0 | 7.0 | 0.00 | 0.00 | 0.00 | 99 | 1013.2 |
| 20260504220518 | 82 | 249 | 0.0 | 11.0 | 0.00 | 0.00 | 0.00 | 99 | 1013.2 |
| 20260504220015 | 82 | 256 | 3.0 | 5.0 | 0.00 | 0.00 | 0.00 | 99 | 1013.3 |
| 20260504215511 | 82 | 159 | 3.0 | 7.0 | 0.00 | 0.00 | 0.00 | 99 | 1013.3 |
| 20260504215009 | 83 | 278 | 1.0 | 5.0 | 0.00 | 0.00 | 0.00 | 99 | 1013.5 |
| 20260504214504 | 82 | 128 | 2.0 | 13.0 | 0.00 | 0.00 | 0.00 | 99 | 1013.5 |
| 20260504214001 | 82 | 141 | 3.0 | 11.0 | 0.00 | 0.00 | 0.00 | 99 | 1013.6 |
| 20260504213457 | 81 | 174 | 1.0 | 12.0 | 0.00 | 0.00 | 0.00 | 99 | 1013.7 |
| 20260504212955 | 82 | 158 | 3.0 | 6.0 | 0.00 | 0.00 | 0.00 | 99 | 1013.7 |
| 20260504212450 | 81 | 111 | 0.0 | 10.0 | 0.00 | 0.00 | 0.00 | 99 | 1013.4 |
| 20260504211948 | 81 | 160 | 4.0 | 7.0 | 0.00 | 0.00 | 0.00 | 99 | 1014.1 |
| 20260504211444 | 81 | 240 | 3.0 | 13.0 | 0.00 | 0.00 | 0.00 | 99 | 1014.0 |
| 20260504210942 | 81 | 96 | 3.0 | 12.0 | 0.00 | 0.00 | 0.00 | 99 | 1014.0 |
| 20260504210438 | 82 | 145 | 4.0 | 6.0 | 0.00 | 0.00 | 0.00 | 99 | 1014.2 |
| 20260504205936 | 82 | 124 | 5.0 | 8.0 | 0.00 | 0.00 | 0.00 | 99 | 1014.4 |
| 20260504205433 | 83 | 153 | 4.0 | 9.0 | 0.00 | 0.00 | 0.00 | 99 | 1014.3 |
| 20260504204931 | 82 | 236 | 4.0 | 12.0 | 0.00 | 0.00 | 0.00 | 99 | 1014.4 |
| 20260504204429 | 81 | 134 | 4.0 | 11.0 | 0.00 | 0.00 | 0.00 | 99 | 1014.6 |
| 20260504203928 | 81 | 151 | 3.0 | 12.0 | 0.00 | 0.00 | 0.00 | 99 | 1014.5 |
| 20260504203425 | 82 | 96 | 2.0 | 8.0 | 0.00 | 0.00 | 0.00 | 99 | 1014.8 |
| 20260504202921 | 81 | 192 | 0.0 | 14.0 | 0.00 | 0.00 | 0.00 | 99 | 1015.0 |
| 20260504202418 | 81 | 184 | 2.0 | 13.0 | 0.00 | 0.00 | 0.00 | 99 | 1014.9 |
| 20260504201915 | 81 | 220 | 0.0 | 16.0 | 0.00 | 0.00 | 0.00 | 99 | 1015.0 |
| 20260504201412 | 82 | 134 | 5.0 | 12.0 | 0.00 | 0.00 | 0.00 | 99 | 1015.0 |
| 20260504200909 | 82 | 261 | 1.0 | 14.0 | 0.00 | 0.00 | 0.00 | 99 | 1015.4 |
| 20260504200406 | 81 | 144 | 6.0 | 13.0 | 0.00 | 0.00 | 0.00 | 99 | 1015.4 |
| 20260504195903 | 81 | 152 | 3.0 | 18.0 | 0.00 | 0.00 | 0.00 | 99 | 1015.8 |
| 20260504195358 | 81 | 235 | 9.0 | 12.0 | 0.00 | 0.00 | 0.00 | 99 | 1015.6 |
| 20260504194855 | 81 | 284 | 7.0 | 10.0 | 0.00 | 0.00 | 0.00 | 99 | 1016.0 |
| 20260504194351 | 80 | 145 | 3.0 | 6.0 | 0.00 | 0.00 | 0.00 | 99 | 1015.9 |
| 20260504193847 | 80 | 229 | 3.0 | 14.0 | 0.00 | 0.00 | 0.00 | 99 | 1015.9 |
| 20260504193344 | 80 | 119 | 2.0 | 13.0 | 0.00 | 0.00 | 0.00 | 99 | 1015.8 |
| 20260504192843 | 80 | 96 | 2.0 | 14.0 | 0.00 | 0.00 | 0.00 | 99 | 1016.3 |
| 20260504192341 | 79 | 189 | 3.0 | 13.0 | 0.00 | 0.00 | 0.00 | 99 | 1016.2 |
| 20260504191839 | 79 | 198 | 9.0 | 9.0 | 0.00 | 0.00 | 0.00 | 99 | 1016.0 |
| 20260504191337 | 79 | 119 | 3.0 | 8.0 | 0.00 | 0.00 | 0.00 | 99 | 1016.5 |
| 20260504190832 | 80 | 172 | 3.0 | 19.0 | 0.00 | 0.00 | 0.00 | 99 | 1016.7 |
| 20260504190328 | 80 | 169 | 2.0 | 8.0 | 0.00 | 0.00 | 0.00 | 99 | 1016.4 |
| 20260504185825 | 80 | 238 | 7.0 | 16.0 | 0.00 | 0.00 | 0.00 | 99 | 1016.5 |
| 20260504185322 | 80 | 223 | 7.0 | 10.0 | 0.00 | 0.00 | 0.00 | 99 | 1016.4 |
| 20260504184818 | 80 | 212 | 3.0 | 8.0 | 0.00 | 0.00 | 0.00 | 99 | 1016.6 |
| 20260504184314 | 78 | 124 | 4.0 | 8.0 | 0.00 | 0.00 | 0.00 | 99 | 1016.5 |
| 20260504183809 | 79 | 162 | 0.0 | 10.0 | 0.00 | 0.00 | 0.00 | 99 | 1016.6 |
| 20260504183307 | 78 | 226 | 6.0 | 12.0 | 0.00 | 0.00 | 0.00 | 99 | 1016.8 |
| 20260504182805 | 78 | 198 | 6.0 | 13.0 | 0.00 | 0.00 | 0.00 | 99 | 1016.9 |
| 20260504182304 | 78 | 208 | 5.0 | 14.0 | 0.00 | 0.00 | 0.00 | 99 | 1016.8 |
| 20260504181759 | 78 | 102 | 2.0 | 7.0 | 0.00 | 0.00 | 0.00 | 99 | 1017.0 |
| 20260504181256 | 79 | 218 | 3.0 | 7.0 | 0.00 | 0.00 | 0.00 | 99 | 1017.0 |
| 20260504180755 | 78 | 187 | 2.0 | 17.0 | 0.00 | 0.00 | 0.00 | 99 | 1017.2 |
| 20260504180253 | 78 | 155 | 6.0 | 8.0 | 0.00 | 0.00 | 0.00 | 99 | 1017.0 |
| 20260504175751 | 78 | 261 | 5.0 | 9.0 | 0.00 | 0.00 | 0.00 | 99 | 1017.4 |
| 20260504175248 | 78 | 114 | 0.0 | 17.0 | 0.00 | 0.00 | 0.00 | 99 | 1017.3 |
| 20260504174745 | 78 | 234 | 11.0 | 15.0 | 0.00 | 0.00 | 0.00 | 99 | 1017.6 |
| 20260504174243 | 77 | 65 | 0.0 | 7.0 | 0.00 | 0.00 | 0.00 | 99 | 1017.6 |
| 20260504173739 | 77 | 165 | 3.0 | 12.0 | 0.00 | 0.00 | 0.00 | 99 | 1017.6 |
| 20260504173237 | 77 | 112 | 2.0 | 6.0 | 0.00 | 0.00 | 0.00 | 99 | 1017.9 |
| 20260504172733 | 77 | 263 | 3.0 | 13.0 | 0.00 | 0.00 | 0.00 | 99 | 1018.0 |
| 20260504172230 | 77 | 90 | 1.0 | 8.0 | 0.00 | 0.00 | 0.00 | 99 | 1017.8 |
| 20260504171726 | 76 | 210 | 0.0 | 19.0 | 0.00 | 0.00 | 0.00 | 99 | 1017.9 |
| 20260504171223 | 77 | 143 | 2.0 | 9.0 | 0.00 | 0.00 | 0.00 | 99 | 1018.0 |
| 20260504170720 | 77 | 125 | 3.0 | 12.0 | 0.00 | 0.00 | 0.00 | 99 | 1018.3 |
| 20260504170217 | 76 | 123 | 0.0 | 7.0 | 0.00 | 0.00 | 0.00 | 99 | 1018.3 |
| 20260504160136 | 73 | 147 | 4.0 | 6.0 | 0.00 | 0.00 | 0.00 | 99 | 1019.0 |
| 20260504151103 | 71 | 133 | 3.0 | 9.0 | 0.00 | 0.00 | 0.00 | 99 | 1019.4 |
| 20260504150601 | 71 | 162 | 2.0 | 15.0 | 0.00 | 0.00 | 0.00 | 99 | 1019.5 |
| 20260504141026 | 68 | 154 | 2.0 | 18.0 | 0.00 | 0.00 | 0.00 | 99 | 1019.9 |
| 20260504140523 | 67 | 235 | 5.0 | 9.0 | 0.00 | 0.00 | 0.00 | 99 | 1019.8 |
| 20260504130447 | 64 | 198 | 4.0 | 8.0 | 0.00 | 0.00 | 0.00 | 99 | 1020.0 |
| 20260504110334 | 62 | 97 | 1.0 | 5.0 | 0.00 | 0.00 | 0.00 | 99 | 1019.3 |
| 20260504100252 | 63 | 141 | 0.0 | 4.0 | 0.00 | 0.00 | 0.00 | 99 | 1019.6 |
| 20260504081645 | 65 | 214 | 3.0 | 5.0 | 0.00 | 0.00 | 0.00 | 99 | 1020.1 |
| 20260504081141 | 64 | 215 | 0.0 | 4.0 | 0.00 | 0.00 | 0.00 | 99 | 1020.1 |
| 20260504080638 | 65 | 182 | 0.0 | 8.0 | 0.00 | 0.00 | 0.00 | 99 | 1020.1 |
| 20260504080134 | 65 | 194 | 3.0 | 5.0 | 0.00 | 0.00 | 0.00 | 99 | 1019.9 |
| 20260504050451 | 68 | 328 | 0.0 | 3.0 | 0.00 | 0.00 | 0.00 | 99 | 1021.9 |
| 20260504045948 | 68 | 233 | 0.0 | 6.0 | 0.00 | 0.00 | 0.00 | 99 | 1022.2 |
| 20260504045443 | 69 | 172 | 0.0 | 5.0 | 0.00 | 0.00 | 0.00 | 99 | 1022.2 |
| 20260504044940 | 69 | 247 | 0.0 | 4.0 | 0.00 | 0.00 | 0.00 | 99 | 1022.2 |
| 20260504044437 | 69 | 254 | 0.0 | 6.0 | 0.00 | 0.00 | 0.00 | 99 | 1022.1 |
| 20260504043935 | 69 | 103 | 0.0 | 6.0 | 0.00 | 0.00 | 0.00 | 99 | 1022.3 |
| 20260504043432 | 69 | 263 | 1.0 | 6.0 | 0.00 | 0.00 | 0.00 | 99 | 1022.3 |
| 20260504042929 | 69 | 192 | 1.0 | 7.0 | 0.00 | 0.00 | 0.00 | 99 | 1022.4 |
| 20260504042426 | 69 | 183 | 0.0 | 2.0 | 0.00 | 0.00 | 0.00 | 99 | 1022.3 |
| 20260504041922 | 69 | 163 | 2.0 | 4.0 | 0.00 | 0.00 | 0.00 | 99 | 1022.3 |
| 20260504041418 | 69 | 90 | 2.0 | 5.0 | 0.00 | 0.00 | 0.00 | 99 | 1022.3 |
| 20260504040914 | 69 | 228 | 0.0 | 2.0 | 0.00 | 0.00 | 0.00 | 99 | 1022.3 |
| 20260504040413 | 70 | 207 | 0.0 | 7.0 | 0.00 | 0.00 | 0.00 | 99 | 1022.3 |
| 20260504035908 | 69 | 123 | 2.0 | 3.0 | 0.00 | 0.00 | 0.00 | 99 | 1022.4 |
| 20260504035406 | 69 | 112 | 3.0 | 4.0 | 0.00 | 0.00 | 0.00 | 99 | 1022.5 |
| 20260504034902 | 70 | 109 | 0.0 | 3.0 | 0.00 | 0.00 | 0.00 | 99 | 1022.5 |
| 20260504034359 | 70 | 278 | 1.0 | 4.0 | 0.00 | 0.00 | 0.00 | 99 | 1022.2 |
| 20260504033856 | 70 | 203 | 0.0 | 2.0 | 0.00 | 0.00 | 0.00 | 99 | 1022.1 |
| 20260504033354 | 70 | 255 | 0.0 | 4.0 | 0.00 | 0.00 | 0.00 | 99 | 1022.2 |
| 20260504032851 | 70 | 151 | 1.0 | 4.0 | 0.00 | 0.00 | 0.00 | 99 | 1022.0 |
| 20260504032348 | 71 | 220 | 0.0 | 4.0 | 0.00 | 0.00 | 0.00 | 99 | 1022.1 |
| 20260504031844 | 71 | 132 | 0.0 | 5.0 | 0.00 | 0.00 | 0.00 | 99 | 1022.2 |
| 20260504031342 | 71 | 180 | 1.0 | 6.0 | 0.00 | 0.00 | 0.00 | 99 | 1022.0 |
| 20260504030838 | 71 | 81 | 0.0 | 5.0 | 0.00 | 0.00 | 0.00 | 99 | 1022.1 |
| 20260504030336 | 71 | 160 | 1.0 | 5.0 | 0.00 | 0.00 | 0.00 | 99 | 1021.8 |
| 20260504025832 | 71 | 217 | 2.0 | 4.0 | 0.00 | 0.00 | 0.00 | 99 | 1021.9 |
| 20260504025329 | 71 | 220 | 2.0 | 2.0 | 0.00 | 0.00 | 0.00 | 99 | 1021.9 |
| 20260504024825 | 72 | 148 | 0.0 | 3.0 | 0.00 | 0.00 | 0.00 | 99 | 1022.0 |
| 20260504024322 | 72 | 239 | 5.0 | 5.0 | 0.00 | 0.00 | 0.00 | 99 | 1022.1 |
| 20260504023819 | 72 | 270 | 0.0 | 7.0 | 0.00 | 0.00 | 0.00 | 99 | 1022.0 |
| 20260504023315 | 72 | 139 | 0.0 | 5.0 | 0.00 | 0.00 | 0.00 | 99 | 1022.1 |
| 20260504022811 | 73 | 176 | 2.0 | 4.0 | 0.00 | 0.00 | 0.00 | 99 | 1022.1 |
| 20260504022308 | 73 | 98 | 2.0 | 9.0 | 0.00 | 0.00 | 0.00 | 99 | 1022.2 |
| 20260504021804 | 73 | 99 | 0.0 | 5.0 | 0.00 | 0.00 | 0.00 | 99 | 1021.9 |
| 20260504021302 | 73 | 221 | 2.0 | 5.0 | 0.00 | 0.00 | 0.00 | 99 | 1022.1 |
| 20260504020759 | 73 | 254 | 1.0 | 3.0 | 0.00 | 0.00 | 0.00 | 99 | 1021.8 |
| 20260504020255 | 73 | 325 | 0.0 | 4.0 | 0.00 | 0.00 | 0.00 | 99 | 1021.7 |
| 20260504015751 | 74 | 117 | 0.0 | 6.0 | 0.00 | 0.00 | 0.00 | 99 | 1021.9 |
| 20260504015248 | 74 | 195 | 0.0 | 4.0 | 0.00 | 0.00 | 0.00 | 99 | 1021.9 |
| 20260504014744 | 74 | 146 | 2.0 | 6.0 | 0.00 | 0.00 | 0.00 | 99 | 1021.9 |
| 20260504014240 | 74 | 188 | 0.0 | 4.0 | 0.00 | 0.00 | 0.00 | 99 | 1021.8 |
| 20260504013738 | 74 | 160 | 0.0 | 6.0 | 0.00 | 0.00 | 0.00 | 99 | 1021.8 |
| 20260504013236 | 75 | 146 | 3.0 | 8.0 | 0.00 | 0.00 | 0.00 | 99 | 1021.8 |
| 20260504012732 | 74 | 98 | 0.0 | 3.0 | 0.00 | 0.00 | 0.00 | 99 | 1021.9 |
| 20260504012230 | 75 | 249 | 3.0 | 6.0 | 0.00 | 0.00 | 0.00 | 99 | 1021.7 |
| 20260504011727 | 75 | 120 | 0.0 | 4.0 | 0.00 | 0.00 | 0.00 | 99 | 1021.5 |
| 20260504011223 | 75 | 270 | 1.0 | 8.0 | 0.00 | 0.00 | 0.00 | 99 | 1021.7 |
| 20260504010719 | 75 | 200 | 6.0 | 6.0 | 0.00 | 0.00 | 0.00 | 99 | 1021.7 |
| 20260504010215 | 75 | 157 | 0.0 | 6.0 | 0.00 | 0.00 | 0.00 | 99 | 1021.4 |
| 20260504005712 | 76 | 203 | 1.0 | 3.0 | 0.00 | 0.00 | 0.00 | 99 | 1021.5 |
| 20260504005209 | 76 | 168 | 0.0 | 4.0 | 0.00 | 0.00 | 0.00 | 99 | 1021.7 |
| 20260504004707 | 76 | 209 | 5.0 | 5.0 | 0.00 | 0.00 | 0.00 | 99 | 1021.4 |
| 20260504004204 | 77 | 124 | 0.0 | 3.0 | 0.00 | 0.00 | 0.00 | 99 | 1021.4 |
| 20260504003700 | 78 | 245 | 2.0 | 9.0 | 0.00 | 0.00 | 0.00 | 99 | 1021.6 |
| 20260504003157 | 79 | 198 | 1.0 | 5.0 | 0.00 | 0.00 | 0.00 | 99 | 1021.5 |
| 20260504002654 | 79 | 117 | 0.0 | 7.0 | 0.00 | 0.00 | 0.00 | 99 | 1021.5 |
| 20260504002151 | 80 | 228 | 0.0 | 8.0 | 0.00 | 0.00 | 0.00 | 99 | 1021.4 |
| 20260504001649 | 80 | 236 | 2.0 | 11.0 | 0.00 | 0.00 | 0.00 | 99 | 1021.5 |